COSMOS 1275 DEB

Satellite information

Favourite Embed

Satellite Type and Status

DEBRISIN ORBIT

Key statistics

Satellite COSMOS 1275 DEB at a glance.

Uptime

16263

Days in orbit

Revolutions

≈ 14.4

Per day

Orbit

LEO

Low Earth Orbit

Inclination

82.9

Latest

Satellite identification and parameters

Extended collection of information and parameters for COSMOS 1275 DEB.

Object identification

Identified? True

Debris? True

Object name: COSMOS 1275 DEB

International designator: 1981-053JN

Object number (NORAD): 14558

Object ID (CCSDS): 14558

Country: COMMONWEALTH OF INDEPENDENT STATES (CIS)

Current information (Y/N): Y

RCS size: SMALL

Orbital parameters

Period: 100.144 minutes

Inclination: 82.9213 deg

SMA: 7143.463 km

Apoapsis: 775.419 km

Periapsis: 755.238 km

RAAN: 162.3247 deg

Eccentricy: 0.00141254

Argument of periapsis: 62.209 deg

Mean anomaly: 352.4915 deg

Mean motion: 14.37935887 rev/day

Mean motion (dot): 0.00008531 rev/day2

B* drag term: 0.0028148506 1/REarth

Two-line elements (TLE)

Creation date: Dec. 12, 2025, 10:14 a.m.

Reference frame: TEME

Reference center: EARTH

Epoch: Dec. 12, 2025, 5:51 a.m. UTC

TLE line 0: 0 COSMOS 1275 DEB

TLE line 1: 1 14558U 81053JN 25346.24395851 .00008531 00000-0 28149-2 0 9990

TLE line 2: 2 14558 82.9213 162.3247 0014125 62.2090 352.4915 14.37935887266746

Live tracking on map

Real-time ground track for satellite COSMOS 1275 DEB.

In-orbit conjunctions

A list of the most updated potential collisions computed for object COSMOS 1275 DEB.

Target Orbit TCA Probability of collision Miss distance Type
FENGYUN 1C DEB SSO 2024-11-14 23:24:01 0.0002767329 840.0 (m) DEBRIS
COSMOS 1375 DEB LEO 2024-11-13 18:16:08 0.0001250025 419.0 (m) DEBRIS

Associated space launch

Navigation satellite providing location information for the Tsiklon-B navigation system

COSMOS 1275 DEB was lifted into orbit during the mission ‘Kosmos-3M | Parus 27’, on board a Kosmos-3M space rocket.

The launch took place on June 4, 1981, 3:41 p.m. from 132/2.

For more information about the launch, click the button.

Launch to space Kosmos-3M | Parus 27
Kosmos-3M | Parus 27

Agency: N/A

Status: Launch Successful

Launch date: June 4, 1981, 3:41 p.m. UTC

Rocket: Kosmos-3M

Launch pad: 132/2

Location: Plesetsk Cosmodrome, Russian Federation

...

Latest news about this satellite

There are no fresh news available about this satellite. Check back as we update our databases every day.


Newsletter sign-up

Weekly statistics, charts and insights to help you stay on top of the space industry.